Location: Casper
(42.8670°N, 106.3130°W)
Time: 09:54:28
(UTC-06:00)

Daily predictions for brighter satellites

Satellite Brightness Start Highest point End
(mag) Time Altitude Azimuth Time Altitude Azimuth Time Altitude Azimuth
SL-8 R/B 3.8 21:13:09 10° SW 21:17:52 56° SSE 21:22:37 10° ENE
Cosmos 1315 Rocket 2.9 21:15:55 10° S 21:19:56 65° E 21:24:01 10° NNE
Cosmos 1953 4.4 21:16:49 10° NNW 21:20:16 29° W 21:23:44 10° SSW
Cosmos 2278 Rocket 3.7 21:20:38 10° SE 21:23:58 16° E 21:27:18 10° ENE
ARGOS 3.5 21:19:06 10° SE 21:24:21 53° ENE 21:29:37 10° N
Spot 2 Rocket 3.7 21:25:07 10° S 21:30:08 73° WSW 21:35:14 10° NNW
MetOp-A 4.4 21:25:09 10° SSE 21:30:23 57° ENE 21:35:38 10° N
CZ-4B DEB 4.4 21:29:17 10° SSE 21:32:43 78° ENE 21:36:12 10° N
Cosmos 1844 Rocket 2.7 21:34:24 10° SSW 21:40:01 70° ESE 21:45:40 10° NNE
COSMOS 2406 3.7 21:35:31 10° NNW 21:41:09 51° ENE 21:46:26 11° SE
SL-08 RB Rocket 3.9 21:39:39 10° SSE 21:44:13 60° ENE 21:48:50 10° N
Cosmos 1844 3.8 21:41:02 10° S 21:46:37 61° ESE 21:52:18 10° NNE
Cosmos 1238 Rocket 2.2 21:44:36 10° S 21:47:31 77° W 21:50:38 10° N
Cosmos 1110 Rocket 4.0 21:43:49 10° NNW 21:49:00 70° ENE 21:53:47 12° SSE
Cosmos 2084 3.7 21:45:24 10° NW 21:49:10 54° WSW 21:52:41 12° SSE
SPOT 5 3.9 21:45:39 11° SE 21:50:00 35° ENE 21:54:47 10° N
Cosmos 1346 Rocket 2.8 21:46:19 10° N 21:50:21 90° N 21:54:24 10° S
Cosmos-2242 3.1 21:49:06 10° N 21:53:32 88° WSW 21:57:55 10° S
ATLAS 3B R/B 2.9 21:47:47 10° NNW 21:54:23 62° NE 22:00:07 14° SE
Cosmos 2285 Rocket 4.3 21:48:26 10° SSW 21:54:45 74° WNW 22:01:05 10° NNE
Lacrosse 5 2.8 21:49:57 10° WSW 21:54:54 52° NW 21:59:52 10° NE
ATLAS 5 CENTAUR R/B 3.2 21:55:48 14° SE 21:57:11 16° ESE 22:00:01 10° ENE
USA 238 DEB 3.9 21:51:35 10° NW 21:58:46 84° NE 22:05:06 14° SE
USA 238 3.9 21:51:41 10° NW 21:58:52 84° NE 22:05:12 14° SE
Cosmos 1331 Rocket 4.0 21:56:08 10° NNW 22:01:22 79° ENE 22:05:51 14° SSE
Cosmos 494 Rocket 4.0 21:58:32 10° SSW 22:03:46 81° ESE 22:09:04 10° NNE
BREEZE-M DEB (TANK) 3.4 21:54:18 10° WSW 22:04:17 85° NNW 22:07:29 10° ENE
Meteor 1-24 Rocket 4.2 21:58:43 10° SSW 22:04:44 71° WNW 22:10:45 10° N
H-2A R/B 2.2 21:59:27 10° SSE 22:04:46 85° WSW 22:10:13 10° NNW
SPOT 1/Viking Rocket 4.1 22:00:46 15° SE 22:04:48 45° ENE 22:09:41 10° N
S3M 4.2 22:00:46 10° S 22:06:58 58° E 22:13:14 10° NNE
Cosmos 1626 4.1 22:06:16 13° ESE 22:07:11 14° E 22:09:06 10° NE
Helios 1A 3.6 22:05:04 17° SE 22:07:57 42° ENE 22:11:56 10° N
Helios 1B rocket 3.7 22:04:53 10° NE 22:08:16 24° E 22:10:01 18° SE
Timation 1 Rocket 4.4 22:03:16 10° SSW 22:09:13 83° WNW 22:15:15 10° NNE
Cosmos 1908 3.2 22:06:08 10° N 22:10:00 82° W 22:13:18 14° S
NOSS 3-2 (A) 4.2 22:02:48 10° NNW 22:10:18 69° NE 22:17:06 16° SE
Cosmos 2082 Rocket 3.9 22:05:56 10° N 22:10:23 23° NE 22:14:48 10° ESE
Cosmos 1833 Rocket 4.2 22:06:29 10° N 22:11:04 25° NE 22:15:19 11° ESE
Cosmos 1842 Rocket 3.8 22:09:10 10° N 22:13:26 54° ENE 22:16:22 19° SSE
Cosmos 1340 2.7 22:11:08 10° N 22:14:55 67° E 22:17:22 20° SSE
CZ-2C R/B 4.1 22:15:37 10° NE 22:19:18 19° E 22:21:06 16° ESE
CSL-04 DEB 4.3 22:17:00 18° SSE 22:19:49 90° S 22:23:47 10° NNW
Landsat 7 4.1 22:21:20 20° SE 22:24:26 55° ENE 22:29:06 10° N
ATLAS 2AS CENTAUR R/B 3.6 22:18:35 10° SW 22:26:24 65° NW 22:34:30 10° NNE
Cosmos 1553 Rocket 4.0 22:23:27 10° S 22:29:31 83° W 22:35:39 10° N
Cosmos 1674 3.7 22:26:20 10° SSW 22:29:59 45° WNW 22:33:43 10° N
Cosmos 1302 Rocket 4.0 22:25:06 10° NNW 22:30:25 80° ENE 22:33:50 22° SSE
ERS-1 Rocket 3.2 22:26:45 15° S 22:30:55 66° WSW 22:35:57 10° NNW
DMSP B5D2-2 4.0 22:26:54 10° NNE 22:32:11 87° ESE 22:37:24 10° SSW
Cosmos 1455 4.4 22:31:23 10° NE 22:32:58 12° ENE 22:34:02 11° E
Cosmos 1300 2.8 22:30:59 10° N 22:34:46 58° E 22:36:28 29° SSE
NOSS 3-2 (C) 4.1 22:28:42 10° NNW 22:36:15 73° NE 22:42:13 21° SE
Cosmos 1726 2.9 22:35:39 10° NNW 22:39:17 49° W 22:41:48 18° SSW
Meteor 2-10 4.4 22:36:14 10° NNW 22:41:38 67° W 22:45:55 17° S
RESURS DK-1 3.8 22:41:55 21° ESE 22:41:55 21° ESE 22:44:58 10° NE
Cosmos 2221 2.7 22:38:50 10° N 22:43:06 59° E 22:45:02 30° SSE
Cosmos 2251 Rocket 3.5 22:38:02 10° SSW 22:43:24 90° WNW 22:48:44 10° NNE
Terra 2.1 22:41:23 26° SE 22:43:52 56° ENE 22:48:32 10° N
Okean 3 Rocket 4.4 22:44:14 28° SE 22:45:36 34° E 22:49:34 10° NNE
Cosmos 1386 Rocket 4.4 22:41:44 10° N 22:47:51 90° SW 22:51:53 22° S
Meteor 1-29 3.2 22:45:30 10° NNE 22:48:47 48° E 22:49:26 41° SE
Cosmos 2315 Rocket 4.3 22:47:00 24° SSE 22:50:43 53° E 22:56:53 10° NNE
OAO 3 Rocket 4.3 22:48:40 10° WSW 22:52:42 25° SSW 22:53:18 24° S
Cosmos 1328 4.0 22:57:00 38° SE 22:58:03 50° E 23:01:53 10° NNE
Cosmos 1461 3.3 22:54:25 10° SW 22:59:02 78° WNW 23:03:51 10° NNE
NOSS 2-2 (E) 3.2 22:59:02 25° SSW 23:01:08 68° ESE 23:05:30 10° NE
CENTAUR R/B 3.5 22:53:32 10° NNW 23:01:20 59° NE 23:07:22 20° ESE
NOSS 3-4 (A) 3.4 22:57:25 10° SSW 23:03:36 88° SE 23:10:04 10° NE
NOSS 3-4 (C) 3.4 22:57:31 10° SSW 23:03:40 87° ESE 23:10:09 10° NE
CZ-2C R/B 3.3 23:00:37 29° SSE 23:03:46 75° ENE 23:09:30 10° N
Cosmos 2278 Rocket 2.4 23:01:41 10° SSW 23:07:20 73° WNW 23:13:03 10° NNE
IGS 5A 3.7 23:09:47 34° SSW 23:11:25 62° W 23:15:34 10° NNW
BREEZE-M DEB (TANK) 3.9 23:04:31 10° SW 23:13:37 52° SSE 23:17:25 10° ENE
APEX 4.5 23:11:07 10° NW 23:13:59 28° WSW 23:14:55 25° SW
Nimbus 7 Rocket 4.4 23:15:33 10° NNE 23:21:36 84° ESE 23:25:13 26° SSW
CARTOSAT-1 4.2 23:21:01 31° SSW 23:22:43 48° W 23:26:56 10° NNW
Cosmos 405 Rocket 4.2 23:23:35 10° NNE 23:26:37 23° ENE 23:26:54 23° E
SPOT 5 4.4 23:24:53 17° SSW 23:28:02 31° W 23:32:41 10° NNW
NOSS 2-2 (D) 3.5 23:29:52 25° SW 23:32:04 71° NW 23:36:28 10° NNE
SL-27 R/B 2.3 23:29:58 10° NNW 23:33:38 79° ENE 23:33:50 75° ESE
Cosmos 1076 Rocket 3.9 23:32:29 33° SW 23:34:11 57° W 23:38:22 10° N
Cosmos 2369 Rocket 4.0 23:36:42 15° E 23:36:42 15° E 23:39:51 10° ENE
Meteor 2-2 Rocket 4.2 23:33:20 10° N 23:39:00 86° W 23:41:08 40° S
Cosmos 1151 Rocket 4.1 23:35:14 10° NNE 23:39:04 31° ENE 23:39:40 30° E
ATLAS 5 CENTAUR R/B 2.2 23:37:13 13° SW 23:41:10 60° NW 23:46:05 10° NNE
Cosmos 1626 3.3 23:40:50 28° WSW 23:42:07 37° WNW 23:45:37 10° N
Helios 1B rocket 4.2 23:40:00 10° N 23:43:31 28° WNW 23:46:22 14° WSW
ATLAS 3B R/B 3.9 23:39:13 10° WNW 23:44:33 27° WSW 23:47:23 20° SSW
ALOS 2 4.0 23:43:56 24° E 23:44:57 27° ENE 23:48:39 10° N
Mayak 0.2 23:41:42 10° NE 23:44:50 25° E 23:44:50 25° E
Cosmos 1408 Rocket 3.5 23:44:44 58° SSE 23:45:31 75° E 23:50:00 10° NNE
CZ-4 R/B 4.2 23:42:17 10° NNE 23:46:51 43° E 23:47:19 42° ESE
Cosmos 1766 Rocket 3.5 23:46:05 53° SSW 23:47:07 85° W 23:51:38 10° N
Cosmos 1703 3.2 23:47:41 63° SW 23:48:10 75° W 23:52:05 10° N
Cosmos 2297 3.7 23:48:47 30° SSW 23:51:43 83° WNW 23:57:29 10° NNE
Cosmos 371 Rocket 4.2 23:49:00 10° N 23:53:32 38° ENE 23:54:57 31° E
Cosmos 2058 2.8 23:54:05 67° SE 23:54:20 70° E 23:58:28 10° NNE
Cosmos 2151 3.1 23:55:07 55° ESE 23:55:19 56° E 23:59:29 10° NNE
Cosmos 1515 Rocket 4.0 23:51:10 10° N 23:55:27 47° ENE 23:56:01 44° ESE
